Time,TemperatureF,DewpointF,PressureIn,WindDirection,WindDirectionDegrees,WindSpeedMPH,WindSpeedGustMPH,Humidity,HourlyPrecipIn,Conditions,Clouds,dailyrainin,SoftwareType,DateUTC
2013-01-28 00:04:00,-4.0,-11.0,-100.00,SW,228,0.0,0.0,71,-99.99,,,-99.99,,2013-01-28 05:04:00,
2013-01-28 00:11:00,-4.0,-11.0,-100.00,ESE,113,0.0,2.0,72,-99.99,,,-99.99,,2013-01-28 05:11:00,
2013-01-28 00:22:00,-4.0,-11.0,-100.00,ESE,113,0.0,2.0,72,-99.99,,,-99.99,,2013-01-28 05:22:00,
2013-01-28 00:32:00,-5.0,-11.0,-100.00,SE,125,0.0,2.0,73,-99.99,,,-99.99,,2013-01-28 05:32:00,
2013-01-28 00:42:00,-5.0,-11.0,-100.00,WSW,240,0.0,0.0,74,-99.99,,,-99.99,,2013-01-28 05:42:00,
2013-01-28 00:52:00,-5.0,-11.0,-100.00,WSW,240,0.0,0.0,74,-99.99,,,-99.99,,2013-01-28 05:52:00,
2013-01-28 01:02:00,-5.0,-11.0,-100.00,West,278,0.0,0.0,73,-99.99,,,-99.99,,2013-01-28 06:02:00,
2013-01-28 01:11:00,-3.0,-10.0,-100.00,SW,220,0.0,2.0,71,-99.99,,,-99.99,,2013-01-28 06:11:00,
2013-01-28 01:22:00,-3.0,-10.0,-100.00,SSW,210,0.0,2.0,70,-99.99,,,-99.99,,2013-01-28 06:22:00,
2013-01-28 01:32:00,-3.0,-10.0,-100.00,SW,218,1.0,4.0,69,-99.99,,,-99.99,,2013-01-28 06:32:00,
2013-01-28 01:42:00,-4.0,-11.0,-100.00,North,6,0.0,0.0,70,-99.99,,,-99.99,,2013-01-28 06:42:00,
2013-01-28 01:52:00,-4.0,-11.0,-100.00,North,6,0.0,0.0,70,-99.99,,,-99.99,,2013-01-28 06:52:00,
2013-01-28 02:03:00,-6.0,-12.0,-100.00,West,262,0.0,2.0,76,-99.99,,,-99.99,,2013-01-28 07:03:00,
2013-01-28 02:11:00,-6.0,-11.0,-100.00,North,0,0.0,2.0,76,-99.99,,,-99.99,,2013-01-28 07:11:00,
2013-01-28 02:21:00,-6.0,-11.0,-100.00,WSW,237,0.0,0.0,76,-99.99,,,-99.99,,2013-01-28 07:21:00,
2013-01-28 02:32:00,-5.0,-11.0,-100.00,SSW,210,0.0,0.0,74,-99.99,,,-99.99,,2013-01-28 07:32:00,
2013-01-28 02:42:00,-5.0,-11.0,-100.00,SSW,210,0.0,0.0,74,-99.99,,,-99.99,,2013-01-28 07:42:00,
2013-01-28 02:51:00,-6.0,-11.0,-100.00,South,188,0.0,2.0,76,-99.99,,,-99.99,,2013-01-28 07:51:00,
2013-01-28 03:01:00,-5.0,-11.0,-100.00,West,260,0.0,0.0,75,-99.99,,,-99.99,,2013-01-28 08:01:00,
2013-01-28 03:12:00,-5.0,-11.0,-100.00,West,260,0.0,0.0,75,-99.99,,,-99.99,,2013-01-28 08:12:00,
2013-01-28 03:21:00,-5.0,-11.0,-100.00,ESE,121,0.0,2.0,74,-99.99,,,-99.99,,2013-01-28 08:21:00,
2013-01-28 03:32:00,-7.0,-12.0,-100.00,ESE,105,0.0,0.0,77,-99.99,,,-99.99,,2013-01-28 08:32:00,
2013-01-28 03:42:00,-7.0,-12.0,-100.00,West,262,0.0,0.0,78,-99.99,,,-99.99,,2013-01-28 08:42:00,
2013-01-28 03:52:00,-7.0,-12.0,-100.00,East,91,0.0,0.0,78,-99.99,,,-99.99,,2013-01-28 08:52:00,
2013-01-28 04:02:00,-7.0,-11.0,-100.00,SW,227,0.0,0.0,79,-99.99,,,-99.99,,2013-01-28 09:02:00,
2013-01-28 04:12:00,-7.0,-11.0,-100.00,SW,227,0.0,0.0,79,-99.99,,,-99.99,,2013-01-28 09:12:00,
2013-01-28 04:22:00,-7.0,-12.0,-100.00,SSW,212,0.0,0.0,78,-99.99,,,-99.99,,2013-01-28 09:22:00,
2013-01-28 04:32:00,-7.0,-12.0,-100.00,SSW,212,0.0,0.0,78,-99.99,,,-99.99,,2013-01-28 09:32:00,
2013-01-28 04:42:00,-7.0,-12.0,-100.00,NE,34,0.0,0.0,79,-99.99,,,-99.99,,2013-01-28 09:42:00,
2013-01-28 04:52:00,-7.0,-12.0,-100.00,NE,34,0.0,0.0,79,-99.99,,,-99.99,,2013-01-28 09:52:00,
2013-01-28 05:02:00,-8.0,-12.0,-100.00,West,269,0.0,0.0,80,-99.99,,,-99.99,,2013-01-28 10:02:00,
2013-01-28 05:11:00,-8.0,-12.0,-100.00,SE,136,0.0,2.0,80,-99.99,,,-99.99,,2013-01-28 10:11:00,
2013-01-28 05:21:00,-7.0,-12.0,-100.00,SE,126,0.0,0.0,80,-99.99,,,-99.99,,2013-01-28 10:21:00,
2013-01-28 05:32:00,-7.0,-11.0,-100.00,NNE,19,0.0,2.0,80,-99.99,,,-99.99,,2013-01-28 10:32:00,
2013-01-28 05:42:00,-7.0,-11.0,-100.00,South,189,0.0,0.0,80,-99.99,,,-99.99,,2013-01-28 10:42:00,
2013-01-28 05:51:00,-7.0,-11.0,-100.00,East,87,0.0,0.0,78,-99.99,,,-99.99,,2013-01-28 10:51:00,
2013-01-28 06:02:00,-7.0,-11.0,-100.00,East,87,0.0,0.0,78,-99.99,,,-99.99,,2013-01-28 11:02:00,
2013-01-28 06:11:00,-7.0,-12.0,-100.00,SSW,195,1.0,6.0,79,-99.99,,,-99.99,,2013-01-28 11:11:00,
2013-01-28 06:22:00,-7.0,-12.0,-100.00,SE,133,0.0,2.0,78,-99.99,,,-99.99,,2013-01-28 11:22:00,
2013-01-28 06:32:00,-8.0,-12.0,-100.00,SW,217,0.0,0.0,80,-99.99,,,-99.99,,2013-01-28 11:32:00,
2013-01-28 06:42:00,-8.0,-12.0,-100.00,East,100,0.0,2.0,80,-99.99,,,-99.99,,2013-01-28 11:42:00,
2013-01-28 06:52:00,-8.0,-12.0,-100.00,East,100,0.0,2.0,80,-99.99,,,-99.99,,2013-01-28 11:52:00,
2013-01-28 07:03:00,-8.0,-12.0,-100.00,ESE,108,0.0,0.0,82,-99.99,,,-99.99,,2013-01-28 12:03:00,
2013-01-28 07:12:00,-8.0,-12.0,-100.00,ESE,108,0.0,0.0,82,-99.99,,,-99.99,,2013-01-28 12:12:00,
2013-01-28 07:23:00,-7.0,-11.0,-100.00,SE,143,0.0,0.0,81,-99.99,,,-99.99,,2013-01-28 12:23:00,
2013-01-28 07:33:00,-7.0,-11.0,-100.00,SSW,201,0.0,2.0,80,-99.99,,,-99.99,,2013-01-28 12:33:00,
2013-01-28 07:42:00,-7.0,-12.0,-100.00,East,83,0.0,2.0,79,-99.99,,,-99.99,,2013-01-28 12:42:00,
2013-01-28 07:52:00,-8.0,-12.0,-100.00,East,83,0.0,0.0,81,-99.99,,,-99.99,,2013-01-28 12:52:00,
2013-01-28 08:03:00,-7.0,-11.0,-100.00,WNW,282,0.0,2.0,82,-99.99,,,-99.99,,2013-01-28 13:03:00,
2013-01-28 08:12:00,-6.0,-10.0,-100.00,SW,217,0.0,2.0,82,-99.99,,,-99.99,,2013-01-28 13:12:00,
2013-01-28 08:23:00,-5.0,-9.0,-100.00,SW,233,0.0,2.0,80,-99.99,,,-99.99,,2013-01-28 13:23:00,
2013-01-28 08:33:00,-4.0,-9.0,-100.00,SE,143,0.0,2.0,78,-99.99,,,-99.99,,2013-01-28 13:33:00,
2013-01-28 08:42:00,-4.0,-9.0,-100.00,SE,133,0.0,2.0,77,-99.99,,,-99.99,,2013-01-28 13:42:00,
2013-01-28 08:52:00,-4.0,-9.0,-100.00,SE,133,0.0,2.0,77,-99.99,,,-99.99,,2013-01-28 13:52:00,
2013-01-28 09:03:00,-4.0,-9.0,-100.00,SE,133,0.0,2.0,77,-99.99,,,-99.99,,2013-01-28 14:03:00,
2013-01-28 09:12:00,-3.0,-8.0,-100.00,South,184,0.0,0.0,78,-99.99,,,-99.99,,2013-01-28 14:12:00,
2013-01-28 09:22:00,-2.0,-8.0,-100.00,South,176,0.0,0.0,76,-99.99,,,-99.99,,2013-01-28 14:22:00,
2013-01-28 09:33:00,-1.0,-7.0,-100.00,ESE,108,0.0,2.0,74,-99.99,,,-99.99,,2013-01-28 14:33:00,
2013-01-28 09:43:00,-1.0,-7.0,-100.00,ESE,108,0.0,2.0,74,-99.99,,,-99.99,,2013-01-28 14:43:00,
2013-01-28 09:52:00,0.0,-7.0,-100.00,ESE,102,0.0,2.0,71,-99.99,,,-99.99,,2013-01-28 14:52:00,
2013-01-28 10:03:00,0.0,-7.0,-100.00,NE,46,0.0,2.0,68,-99.99,,,-99.99,,2013-01-28 15:03:00,
2013-01-28 10:12:00,0.0,-7.0,-100.00,NE,46,0.0,2.0,68,-99.99,,,-99.99,,2013-01-28 15:12:00,
2013-01-28 10:23:00,1.0,-7.0,-100.00,WSW,244,0.0,0.0,67,-99.99,,,-99.99,,2013-01-28 15:23:00,
2013-01-28 10:33:00,2.0,-7.0,-100.00,SW,231,0.0,0.0,66,-99.99,,,-99.99,,2013-01-28 15:33:00,
2013-01-28 10:43:00,4.0,-6.0,-100.00,East,83,0.0,2.0,61,-99.99,,,-99.99,,2013-01-28 15:43:00,
2013-01-28 10:53:00,4.0,-6.0,-100.00,East,83,0.0,2.0,61,-99.99,,,-99.99,,2013-01-28 15:53:00,
2013-01-28 11:04:00,5.0,-5.0,-100.00,ESE,118,0.0,0.0,60,-99.99,,,-99.99,,2013-01-28 16:04:00,
2013-01-28 11:13:00,5.0,-5.0,-100.00,ESE,118,0.0,0.0,60,-99.99,,,-99.99,,2013-01-28 16:13:00,
2013-01-28 11:22:00,6.0,-5.0,-100.00,ESE,109,0.0,2.0,60,-99.99,,,-99.99,,2013-01-28 16:22:00,
2013-01-28 11:33:00,6.0,-5.0,-100.00,SE,135,0.0,2.0,58,-99.99,,,-99.99,,2013-01-28 16:33:00,
2013-01-28 11:43:00,6.0,-5.0,-100.00,SE,135,0.0,2.0,58,-99.99,,,-99.99,,2013-01-28 16:43:00,
2013-01-28 11:52:00,7.0,-6.0,-100.00,SSE,162,0.0,2.0,55,-99.99,,,-99.99,,2013-01-28 16:52:00,
2013-01-28 12:02:00,8.0,-4.0,-100.00,ESE,111,0.0,2.0,57,-99.99,,,-99.99,,2013-01-28 17:02:00,
2013-01-28 12:12:00,7.0,-4.0,-100.00,North,9,0.0,2.0,59,-99.99,,,-99.99,,2013-01-28 17:12:00,
2013-01-28 12:23:00,8.0,-1.0,-100.00,SSE,148,0.0,2.0,66,-99.99,,,-99.99,,2013-01-28 17:23:00,
2013-01-28 12:33:00,8.0,1.0,-100.00,SE,140,0.0,2.0,71,-99.99,,,-99.99,,2013-01-28 17:33:00,
2013-01-28 12:42:00,9.0,3.0,-100.00,SW,218,0.0,2.0,74,-99.99,,,-99.99,,2013-01-28 17:42:00,
2013-01-28 12:52:00,9.0,3.0,-100.00,SW,218,0.0,2.0,74,-99.99,,,-99.99,,2013-01-28 17:52:00,
2013-01-28 13:03:00,9.0,3.0,-100.00,SW,218,0.0,2.0,74,-99.99,,,-99.99,,2013-01-28 18:03:00,
2013-01-28 13:12:00,9.0,5.0,-100.00,SSE,149,2.0,4.0,83,-99.99,,,-99.99,,2013-01-28 18:12:00,
2013-01-28 13:23:00,9.0,5.0,-100.00,SSE,149,2.0,4.0,83,-99.99,,,-99.99,,2013-01-28 18:23:00,
2013-01-28 13:33:00,10.0,6.0,-100.00,SSW,197,3.0,8.0,83,-99.99,,,-99.99,,2013-01-28 18:33:00,
2013-01-28 13:42:00,10.0,6.0,-100.00,South,184,1.0,6.0,84,-99.99,,,-99.99,,2013-01-28 18:42:00,
2013-01-28 13:52:00,10.0,7.0,-100.00,South,191,0.0,2.0,85,-99.99,,,-99.99,,2013-01-28 18:52:00,
2013-01-28 14:02:00,11.0,7.0,-100.00,NNE,22,0.0,2.0,86,-99.99,,,-99.99,,2013-01-28 19:02:00,
2013-01-28 14:12:00,11.0,7.0,-100.00,NNE,22,0.0,2.0,86,-99.99,,,-99.99,,2013-01-28 19:12:00,
2013-01-28 14:22:00,10.0,7.0,-100.00,ENE,78,0.0,2.0,86,-99.99,,,-99.99,,2013-01-28 19:22:00,
2013-01-28 14:33:00,10.0,7.0,-100.00,SE,142,0.0,2.0,88,-99.99,,,-99.99,,2013-01-28 19:33:00,
2013-01-28 14:42:00,10.0,7.0,-100.00,East,94,0.0,2.0,88,-99.99,,,-99.99,,2013-01-28 19:42:00,
2013-01-28 14:52:00,10.0,7.0,-100.00,East,91,1.0,2.0,89,-99.99,,,-99.99,,2013-01-28 19:52:00,
2013-01-28 15:03:00,10.0,8.0,-100.00,ESE,119,0.0,2.0,89,-99.99,,,-99.99,,2013-01-28 20:03:00,
2013-01-28 15:12:00,10.0,8.0,-100.00,ESE,115,0.0,2.0,89,-99.99,,,-99.99,,2013-01-28 20:12:00,
2013-01-28 15:22:00,10.0,8.0,-100.00,ESE,106,0.0,2.0,89,-99.99,,,-99.99,,2013-01-28 20:22:00,
2013-01-28 15:33:00,10.0,8.0,-100.00,NNE,21,0.0,2.0,90,-99.99,,,-99.99,,2013-01-28 20:33:00,
2013-01-28 15:42:00,11.0,8.0,-100.00,East,91,0.0,0.0,89,-99.99,,,-99.99,,2013-01-28 20:42:00,
2013-01-28 15:52:00,11.0,8.0,-100.00,East,91,0.0,0.0,89,-99.99,,,-99.99,,2013-01-28 20:52:00,
2013-01-28 16:03:00,11.0,8.0,-100.00,East,91,0.0,0.0,89,-99.99,,,-99.99,,2013-01-28 21:03:00,
2013-01-28 16:12:00,11.0,9.0,-100.00,ESE,116,0.0,0.0,89,-99.99,,,-99.99,,2013-01-28 21:12:00,
2013-01-28 16:22:00,11.0,8.0,-100.00,NNE,15,0.0,2.0,90,-99.99,,,-99.99,,2013-01-28 21:22:00,
2013-01-28 16:33:00,11.0,9.0,-100.00,ENE,68,0.0,2.0,90,-99.99,,,-99.99,,2013-01-28 21:33:00,
2013-01-28 16:43:00,11.0,9.0,-100.00,SE,142,0.0,0.0,90,-99.99,,,-99.99,,2013-01-28 21:43:00,
2013-01-28 16:52:00,11.0,9.0,-100.00,NE,41,0.0,0.0,90,-99.99,,,-99.99,,2013-01-28 21:52:00,
2013-01-28 17:02:00,11.0,9.0,-100.00,West,268,0.0,0.0,90,-99.99,,,-99.99,,2013-01-28 22:02:00,
2013-01-28 17:12:00,11.0,9.0,-100.00,West,268,0.0,0.0,90,-99.99,,,-99.99,,2013-01-28 22:12:00,
2013-01-28 17:23:00,11.0,9.0,-100.00,ESE,106,0.0,2.0,91,-99.99,,,-99.99,,2013-01-28 22:23:00,
2013-01-28 17:33:00,11.0,9.0,-100.00,NW,311,0.0,2.0,91,-99.99,,,-99.99,,2013-01-28 22:33:00,
2013-01-28 17:42:00,11.0,9.0,-100.00,NW,311,0.0,2.0,91,-99.99,,,-99.99,,2013-01-28 22:42:00,
2013-01-28 17:52:00,11.0,9.0,-100.00,NNE,13,0.0,2.0,91,-99.99,,,-99.99,,2013-01-28 22:52:00,
2013-01-28 18:02:00,11.0,9.0,-100.00,NNE,13,0.0,2.0,91,-99.99,,,-99.99,,2013-01-28 23:02:00,
2013-01-28 18:12:00,11.0,9.0,-100.00,East,81,0.0,2.0,92,-99.99,,,-99.99,,2013-01-28 23:12:00,
2013-01-28 18:22:00,11.0,9.0,-100.00,SSW,206,0.0,2.0,92,-99.99,,,-99.99,,2013-01-28 23:22:00,
2013-01-28 18:32:00,11.0,9.0,-100.00,South,188,0.0,2.0,92,-99.99,,,-99.99,,2013-01-28 23:32:00,
2013-01-28 18:42:00,11.0,9.0,-100.00,South,188,0.0,2.0,92,-99.99,,,-99.99,,2013-01-28 23:42:00,
2013-01-28 18:52:00,11.0,9.0,-100.00,South,183,0.0,2.0,92,-99.99,,,-99.99,,2013-01-28 23:52:00,
2013-01-28 19:02:00,11.0,9.0,-100.00,SSE,151,0.0,2.0,92,-99.99,,,-99.99,,2013-01-29 00:02:00,
2013-01-28 19:12:00,11.0,9.0,-100.00,SSW,196,0.0,2.0,92,-99.99,,,-99.99,,2013-01-29 00:12:00,
2013-01-28 19:22:00,11.0,10.0,-100.00,SSW,200,0.0,2.0,92,-99.99,,,-99.99,,2013-01-29 00:22:00,
2013-01-28 19:33:00,12.0,10.0,-100.00,NNE,15,0.0,2.0,91,-99.99,,,-99.99,,2013-01-29 00:33:00,
2013-01-28 19:42:00,12.0,10.0,-100.00,NNE,15,0.0,2.0,91,-99.99,,,-99.99,,2013-01-29 00:42:00,
2013-01-28 19:52:00,12.0,10.0,-100.00,ESE,119,0.0,2.0,91,-99.99,,,-99.99,,2013-01-29 00:52:00,
2013-01-28 20:02:00,12.0,10.0,-100.00,ESE,102,0.0,2.0,92,-99.99,,,-99.99,,2013-01-29 01:02:00,
2013-01-28 20:12:00,11.0,10.0,-100.00,ENE,63,0.0,2.0,92,-99.99,,,-99.99,,2013-01-29 01:12:00,
2013-01-28 20:23:00,11.0,10.0,-100.00,SE,126,0.0,2.0,93,-99.99,,,-99.99,,2013-01-29 01:23:00,
2013-01-28 20:32:00,12.0,10.0,-100.00,SE,126,0.0,2.0,93,-99.99,,,-99.99,,2013-01-29 01:32:00,
2013-01-28 20:42:00,12.0,10.0,-100.00,SE,129,0.0,2.0,93,-99.99,,,-99.99,,2013-01-29 01:42:00,
2013-01-28 20:52:00,12.0,10.0,-100.00,East,93,0.0,0.0,92,-99.99,,,-99.99,,2013-01-29 01:52:00,
2013-01-28 21:02:00,12.0,10.0,-100.00,ESE,102,0.0,2.0,92,-99.99,,,-99.99,,2013-01-29 02:02:00,
2013-01-28 21:12:00,12.0,10.0,-100.00,ESE,107,0.0,2.0,93,-99.99,,,-99.99,,2013-01-29 02:12:00,
2013-01-28 21:22:00,12.0,10.0,-100.00,ESE,105,0.0,2.0,93,-99.99,,,-99.99,,2013-01-29 02:22:00,
2013-01-28 21:33:00,12.0,10.0,-100.00,ESE,105,0.0,2.0,93,-99.99,,,-99.99,,2013-01-29 02:33:00,
2013-01-28 21:42:00,12.0,10.0,-100.00,ESE,105,1.0,2.0,93,-99.99,,,-99.99,,2013-01-29 02:42:00,
2013-01-28 21:52:00,12.0,10.0,-100.00,ESE,105,1.0,2.0,93,-99.99,,,-99.99,,2013-01-29 02:52:00,
2013-01-28 22:03:00,12.0,10.0,-100.00,SE,140,1.0,2.0,93,-99.99,,,-99.99,,2013-01-29 03:03:00,
2013-01-28 22:12:00,12.0,10.0,-100.00,East,91,0.0,2.0,93,-99.99,,,-99.99,,2013-01-29 03:12:00,
2013-01-28 22:22:00,12.0,11.0,-100.00,East,87,0.0,0.0,93,-99.99,,,-99.99,,2013-01-29 03:22:00,
2013-01-28 22:32:00,12.0,11.0,-100.00,East,87,0.0,0.0,93,-99.99,,,-99.99,,2013-01-29 03:32:00,
2013-01-28 22:42:00,12.0,11.0,-100.00,SW,220,0.0,2.0,93,-99.99,,,-99.99,,2013-01-29 03:42:00,
2013-01-28 22:52:00,12.0,11.0,-100.00,SW,220,0.0,2.0,93,-99.99,,,-99.99,,2013-01-29 03:52:00,
2013-01-28 23:02:00,13.0,11.0,-100.00,SW,219,0.0,2.0,92,-99.99,,,-99.99,,2013-01-29 04:02:00,
2013-01-28 23:12:00,13.0,11.0,-100.00,SW,219,0.0,2.0,92,-99.99,,,-99.99,,2013-01-29 04:12:00,
2013-01-28 23:22:00,13.0,11.0,-100.00,SW,235,1.0,2.0,92,-99.99,,,-99.99,,2013-01-29 04:22:00,
2013-01-28 23:32:00,13.0,11.0,-100.00,WSW,238,1.0,2.0,92,-99.99,,,-99.99,,2013-01-29 04:32:00,
2013-01-28 23:42:00,13.0,11.0,-100.00,WSW,238,1.0,2.0,92,-99.99,,,-99.99,,2013-01-29 04:42:00,
2013-01-28 23:52:00,13.0,11.0,-100.00,WNW,297,0.0,0.0,92,-99.99,,,-99.99,,2013-01-29 04:52:00,